Lid_Strength_Index
2 3 2 3 10 10 12 10 8 8 8 6 6 7 8 7 9 13 2 1 0 0 -0 -1 -1 -1 -1 -1 -1 -1 -1 -1 -1 -1 -1 -1 -1 -1 -1 -1 -2 -2 -1 -1 -2 -1 -2 -2 -2
3 3 2 5 11 13 12 8 9 8 6 6 6 6 7 9 5 4 3 1 0 0 -0 -0 -0 -1 -1 -1 -1 -2 -2 -1 -1 -1 -1 -1 -1 -1 -1 -1 -1 -1 -1 -1 -2 -2 -2 -2 -2
3 2 6 8 11 13 11 9 9 6 6 6 7 6 6 7 4 4 2 1 0 0 -0 -0 -0 -1 -1 -1 -1 -1 -1 -2 -1 -1 -1 -1 -1 -1 -1 -1 -1 -2 -2 -1 -2 -2 -2 -2 -2
4 3 5 10 12 9 9 8 6 7 6 6 6 9 5 3 4 2 1 0 1 1 0 -0 -1 -1 -1 -1 -1 -1 -1 -2 -2 -2 -2 -2 -1 -1 -2 -2 -2 -2 -2 -1 -2 -2 -3 -2 -2
4 5 10 11 10 8 7 7 6 7 7 7 7 8 7 4 4 2 1 1 1 1 0 -0 -0 -1 -1 -1 -1 -1 -1 -1 -2 -2 -2 -2 -2 -2 -2 -2 -2 -2 -2 -1 -1 -2 -3 -2 -2
7 7 11 12 10 8 7 7 7 7 7 7 7 7 7 6 5 5 1 1 1 1 0 -0 1 0 -0 -1 -1 -1 -1 -1 -1 -2 -2 -2 -2 -2 -3 -2 -3 -2 -2 -2 -2 -2 -3 -2 -2
8 9 11 11 11 10 8 7 9 8 8 8 7 9 6 6 6 6 3 1 1 1 0 0 -0 0 1 0 0 -0 -1 -1 -1 -1 -1 -1 -1 -1 -2 -2 -3 -2 -2 -2 -2 -2 -3 -2 -2
6 8 11 12 12 11 8 9 8 8 8 7 7 9 9 7 6 6 4 2 2 1 0 0 0 -0 0 0 2 1 0 -0 -0 -0 -0 0 -0 -1 -1 -1 -2 -2 -2 -2 -2 -2 -2 -2 -2
5 11 12 11 11 10 9 10 9 9 10 9 8 8 6 6 6 6 6 5 3 2 1 0 0 0 -0 -0 0 2 1 1 1 1 1 1 -0 -0 -0 0 -0 -2 -2 -2 -2 -2 -2 -1 -1
9 12 11 10 10 11 9 11 11 11 11 11 10 8 7 7 8 8 7 6 5 5 5 6 1 0 0 -0 -0 0 -0 -0 -0 -0 -0 -0 -0 0 0 1 1 -1 -1 -1 -2 -2 -2 -0 0
9 11 10 10 10 10 11 11 11 12 13 11 11 10 8 8 9 9 9 9 9 9 7 6 5 6 4 1 -0 -0 0 0 -0 0 -0 -0 0 1 1 1 1 1 2 0 -1 -0 -0 0 0
13 10 10 9 10 11 12 11 12 12 11 10 11 11 11 10 10 10 10 10 10 10 9 8 8 6 6 5 5 0 0 0 0 0 0 0 0 0 0 1 1 1 1 1 1 0 0 1 0
13 12 11 11 11 12 11 13 13 13 11 10 10 10 12 11 11 10 9 10 10 10 9 9 8 8 7 6 6 5 4 2 0 0 0 -0 0 0 0 1 1 1 1 2 1 1 1 1 1
12 12 12 12 12 13 14 14 13 13 12 11 11 11 11 11 10 10 10 10 9 9 10 9 8 8 8 7 7 7 6 6 5 2 1 0 0 1 1 1 0 0 1 1 1 1 0 1 1
12 14 13 13 13 14 14 16 15 13 12 12 12 11 11 10 10 11 10 11 11 9 9 9 8 8 8 8 7 7 6 6 5 5 3 1 0 0 0 0 1 1 1 1 1 1 0 0 0
15 14 16 15 14 14 16 17 13 12 13 13 12 12 11 11 11 10 10 11 11 10 9 9 7 8 8 8 8 7 6 6 5 4 3 3 2 0 0 1 1 1 0 1 0 1 1 1 1
15 18 16 16 15 15 16 16 13 12 12 13 12 13 12 12 11 10 11 11 11 10 9 9 8 8 8 8 7 7 6 6 6 5 5 3 1 1 1 0 0 1 1 1 1 1 1 2 1
18 18 16 17 16 15 16 16 13 12 12 12 12 12 12 12 12 11 10 10 10 10 9 9 8 9 8 8 8 7 6 6 5 5 4 3 2 1 1 1 0 0 1 1 1 1 1 1 1
16 17 17 15 15 17 16 16 14 13 13 13 13 13 13 13 12 11 10 10 10 10 9 10 10 9 9 8 8 7 7 6 5 5 4 4 3 2 2 2 1 0 1 1 1 1 2 2 1
16 17 17 14 14 16 16 16 14 13 13 13 14 14 13 12 12 11 10 10 10 10 11 11 10 10 9 8 7 7 8 7 7 6 6 5 3 2 2 2 2 1 1 2 2 2 2 2 2
16 17 18 18 16 15 17 17 14 14 14 13 13 13 12 12 12 11 10 11 11 12 11 11 11 10 10 9 8 8 8 8 8 8 7 6 5 4 4 3 3 2 1 2 2 2 2 3 2
19 16 16 17 19 21 18 23 16 13 14 14 13 14 13 12 11 11 11 12 12 11 11 11 10 10 9 9 9 10 10 10 9 8 7 7 6 5 5 5 5 4 3 2 1 1 2 2 3
17 15 17 17 19 23 20 23 17 15 15 14 13 13 13 12 12 12 12 11 12 11 11 10 10 10 9 9 9 10 10 9 8 8 8 8 7 7 6 5 5 5 5 4 3 2 2 1 2
14 16 17 19 19 25 21 21 18 15 14 14 13 12 12 12 12 11 12 11 11 11 11 11 11 10 10 10 9 9 9 9 9 9 9 8 8 7 7 7 7 7 6 6 5 5 3 2 2
16 19 20 20 23 22 19 23 18 14 13 14 14 13 13 12 12 12 13 12 11 11 11 11 11 11 10 9 9 9 9 9 9 9 9 9 9 9 8 8 8 7 7 6 6 5 4 3 2
18 19 20 24 22 22 21 23 17 14 15 14 13 13 13 13 13 13 12 12 12 12 12 11 11 10 9 9 9 9 9 9 9 9 10 10 10 10 9 9 7 7 6 5 5 5 5 4 3
19 20 18 22 27 25 21 17 14 14 14 14 14 14 14 13 13 13 12 11 12 12 12 12 10 9 9 10 10 9 10 10 11 11 11 11 11 10 9 8 7 7 7 6 6 5 5 5 4
17 16 20 20 26 26 21 19 18 16 15 14 14 14 13 13 13 12 12 12 12 12 12 10 9 10 10 10 10 10 11 11 11 11 12 11 11 10 9 7 7 7 7 7 6 6 5 4 4
19 19 18 19 20 23 24 20 16 16 16 14 14 13 13 13 13 12 12 12 12 12 10 10 10 11 11 11 11 11 12 12 12 12 11 11 10 9 8 7 7 7 7 7 7 6 5 5 4
16 17 17 19 21 20 21 22 14 14 14 13 13 12 12 12 12 12 12 13 13 11 11 11 11 11 11 11 12 12 12 12 13 12 11 10 9 9 8 8 8 8 7 7 7 8 6 6 5